Location: *
(39.6488°N, 7.6908°W)
Time: 12:57:41
(UTC+00:00)

Daily predictions for brighter satellites

Satellite Brightness Start Highest point End
(mag) Time Altitude Azimuth Time Altitude Azimuth Time Altitude Azimuth
Cosmos 2333 Rocket 3.1 17:28:23 10° SW 17:33:57 51° WNW 17:39:34 10° NNE
COSMO-SKYMED 1 4.2 17:31:54 10° NE 17:34:31 16° E 17:37:08 10° SE
Cosmos 304 Rocket 4.1 17:30:03 10° NNW 17:34:51 74° WSW 17:39:39 10° S
STARLINK-60 3.1 17:31:48 10° SW 17:35:10 79° SE 17:38:33 10° NE
Cosmos 2237 Rocket 2.3 17:30:02 10° S 17:35:37 62° ESE 17:41:14 10° NNE
Cosmos 1812 2.7 17:33:36 10° S 17:37:25 63° E 17:41:15 10° NNE
Nadezhda 4 Rocket 4.2 17:31:19 10° SSE 17:37:29 57° E 17:43:39 10° NNE
Helios 1A Rocket 3.8 17:35:17 10° S 17:39:18 55° W 17:43:21 10° NNW
Meteor 1-10 Rocket 4.4 17:36:10 10° SSW 17:41:42 76° W 17:47:19 10° N
Okean 1-7 4.4 17:39:01 10° SE 17:42:04 19° E 17:45:09 10° NE
Envisat 3.8 17:37:47 10° SE 17:42:07 29° ENE 17:46:28 10° N
YAOGAN 6 4.3 17:41:14 10° E 17:43:02 14° ENE 17:44:51 10° NE
CORIOLIS 4.4 17:38:26 10° SE 17:43:39 49° ENE 17:48:54 10° N
Radarsat Rocket 4.5 17:39:45 10° S 17:46:00 68° WSW 17:51:51 10° NNW
Cosmos 2219 Rocket 3.4 17:43:09 10° SW 17:48:23 39° WNW 17:53:40 10° N
COBE Rocket 3.8 17:44:48 10° NNE 17:49:26 66° E 17:54:07 10° S
IRS-1C Rocket 4.1 17:45:05 10° SSE 17:50:20 75° ENE 17:55:36 10° N
CZ-4B R/B 4.4 17:49:20 10° NW 17:51:02 13° WNW 17:52:43 10° W
Cosmos 1733 Rocket 3.1 17:48:42 10° N 17:53:07 89° WSW 17:57:31 10° S
Cosmos 1500 3.1 17:50:59 10° N 17:54:45 85° E 17:58:29 10° S
Cosmos 1992 Rocket 4.0 17:52:28 10° NNW 17:57:41 66° ENE 18:02:51 10° SSE
USA 267 3.2 17:52:14 10° ESE 17:58:44 72° NE 18:05:15 10° NW
Cosmos 2026 Rocket 4.5 17:54:14 10° SSE 17:59:40 36° E 18:05:07 10° NNE
Meteor 1-27 Rocket 3.8 17:54:01 10° S 17:59:44 88° W 18:05:37 10° N
Meteor 1-11 Rocket 3.9 17:54:37 10° N 18:00:38 90° W 18:06:33 10° S
ATLAS 3B R/B 4.3 17:54:30 10° NW 18:00:40 39° WSW 18:07:00 10° S
Radarsat 4.5 17:56:16 10° SSE 18:01:26 75° ENE 18:06:38 10° N
Cosmos 1943 Rocket 4.0 18:01:56 10° NNE 18:03:08 11° NE 18:03:08 11° NE
Cosmos 1980 4.0 18:01:06 10° SSW 18:06:42 69° WNW 18:12:22 10° NNE
H-2A R/B 2.7 18:04:59 10° S 18:08:41 82° WSW 18:12:22 10° NNW
Exosat Rocket 4.4 18:07:54 10° SW 18:13:10 49° WNW 18:18:01 10° N
Cosmos 1441 Rocket 3.8 18:10:29 10° N 18:13:56 32° ENE 18:17:20 10° SE
Cosmos 921 Rocket 3.9 18:11:23 10° N 18:15:03 27° ENE 18:18:45 10° SE
Cosmos 2297 4.2 18:11:45 10° N 18:16:58 35° ENE 18:22:06 10° SE
SKYMED 2 3.7 18:18:40 10° NNE 18:22:56 53° E 18:27:10 10° S
Cosmos 1782 Rocket 3.9 18:19:58 10° N 18:24:03 40° ENE 18:28:07 10° SSE
BREEZE-M DEB (TANK) 2.2 18:22:07 10° WNW 18:24:23 57° SW 18:26:23 14° SE
FALCON 9 DEB 3.8 18:21:05 10° WSW 18:24:28 48° NW 18:26:23 22° NNE
Sich 1 Rocket 4.2 18:21:45 10° NNE 18:25:41 31° ENE 18:29:35 10° SE
OAO 2 Rocket 3.9 18:21:41 10° WSW 18:26:31 51° S 18:30:05 18° ESE
Cosmos 1627 Rocket 4.4 18:22:43 10° S 18:28:46 69° E 18:34:50 10° NNE
Cosmos 1536 3.4 18:25:33 10° NNW 18:29:31 58° W 18:33:25 10° S
Cosmos 1703 Rocket 3.5 18:27:22 10° S 18:31:50 86° E 18:36:21 10° N
Genesis I 3.7 18:29:19 10° NNW 18:32:55 36° NE 18:33:25 34° ENE
Cosmos 2195 Rocket 4.4 18:30:17 10° S 18:36:29 87° E 18:42:47 10° N
STARLINK-43 3.9 18:34:43 10° SSW 18:38:10 38° SE 18:38:45 36° ESE
Cosmos 1666 2.9 18:35:24 10° NNW 18:39:07 69° W 18:42:48 10° S
Lacrosse 5 rocket 3.7 18:36:59 10° WNW 18:39:31 15° NNW 18:41:49 11° N
Cosmos 1190 Rocket 3.9 18:38:48 10° S 18:43:57 66° ESE 18:47:07 23° NNE
Cosmos 1092 Rocket 4.4 18:38:58 10° SSW 18:45:14 67° W 18:51:30 10° N
CZ-4 R/B 1.2 18:41:28 10° SSE 18:45:20 63° ENE 18:49:10 10° N
Cosmos 676 Rocket 4.4 18:41:10 10° S 18:45:56 39° ESE 18:46:54 35° ENE
Okean 1 3.1 18:43:55 10° S 18:47:52 73° E 18:49:42 31° NNE
SL-4 R/B 4.0 18:46:15 10° NW 18:48:31 15° N 18:48:47 15° N
Shenzhou-11 Module 2.4 18:45:54 10° WNW 18:48:05 50° NW 18:48:05 50° NW
STARLINK-52 4.2 18:45:28 10° WSW 18:48:46 38° NNW 18:49:38 32° N
NOAA 11 4.4 18:44:14 10° SE 18:49:21 44° ENE 18:54:31 10° N
Okean-O 3.6 18:47:27 10° S 18:51:43 48° W 18:56:02 10° NNW
Aureole 1 Rocket 4.1 18:49:37 10° SW 18:52:14 27° WNW 18:54:02 16° NNW
FengYun 1-2 T 4.2 18:48:43 10° SSE 18:54:12 84° WSW 18:59:44 10° NNW
Cosmos 1954 Rocket 4.2 18:50:02 10° S 18:54:54 44° ESE 18:55:30 42° E
Cosmos 2278 Rocket 4.0 18:51:59 10° NW 18:56:58 32° WSW 19:01:54 10° SSW
ISS -1.7 19:01:25 10° WNW 19:04:19 27° SW 19:06:05 17° S
Cosmos 1743 2.6 19:01:08 10° N 19:05:01 85° W 19:08:53 10° S
USA 116 4.4 19:02:55 14° N 19:07:33 82° WNW 19:12:32 10° SSW
CZ-4C R/B 3.7 19:05:04 10° SSE 19:06:34 17° SSE 19:06:34 17° SSE
SL-16 R/B 2.6 19:03:27 10° SW 19:09:03 62° WNW 19:12:51 21° N
Cosmos 2369 Rocket 3.8 19:05:28 10° N 19:07:18 18° NNE 19:07:18 18° NNE
COSMO-SKYMED 1 3.7 19:06:52 11° N 19:10:52 43° WNW 19:14:58 10° SW
OAO 3 Rocket 3.7 19:07:01 10° WSW 19:11:34 47° S 19:12:20 43° SSE
Cosmos 614 Rocket 4.5 19:06:42 10° SSW 19:11:42 56° WNW 19:14:53 22° N
YAOGAN 1 2.6 19:10:02 10° S 19:14:21 77° WSW 19:18:41 10° NNW
Cosmos 1603 4.4 19:10:31 10° S 19:14:37 37° SE 19:14:37 37° SE
YAOGAN 6 4.3 19:13:00 10° SSW 19:16:12 33° W 19:19:29 10° NNW
Meteor 2-13 Rocket 4.2 19:13:28 10° S 19:19:29 75° E 19:22:11 35° NNE
Cosmos 2237 Rocket 4.4 19:15:58 10° W 19:20:08 20° NW 19:24:19 10° N
S3M 3.8 19:14:57 10° N 19:21:10 68° E 19:27:15 10° SSE
Meteor 1-19 Rocket 4.1 19:17:21 10° S 19:22:53 83° W 19:25:16 36° N
Lacrosse 5 3.2 19:19:39 10° S 19:22:23 26° SSE 19:22:23 26° SSE
Meteor 2-4 Rocket 3.7 19:20:44 10° S 19:26:24 68° ESE 19:26:24 68° ESE
Cosmos 2266 Rocket 4.0 19:21:54 10° S 19:27:43 59° ESE 19:27:43 59° ESE
Cosmos 1140 Rocket 3.8 19:24:00 10° SSW 19:29:03 60° WNW 19:30:32 43° NNW
Cosmos 1553 Rocket 4.2 19:27:49 10° N 19:34:10 73° W 19:40:32 10° S
Cosmos 1943 Rocket 3.7 19:42:29 10° NNW 19:44:42 24° NNW 19:44:42 24° NNW
CZ-3B R/B 4.0 20:00:36 10° SSW 20:04:33 23° S 20:04:33 23° S
